Date String (YYYY-MM-DD hh:mm:ss) UTC,Instrument flags,Ambient pressure (hPa),Sample flow (lpm),Bypass flow (lpm),Sample temperature (°C),Ambient temperature (°C),ASC tube jacket temperature (°C),LED temperature (°C),Box temperature (°C),Sample RH (%),Span deviation,Mass concentration (μg/m³),Mass concentration (μg/m³),Mass concentration (μg/m³)
DateTimeUTC,F1_M11,P_M11,Q1_M11,Q2_M11,T1_M11,T2_M11,T3_M11,T4_M11,T5_M11,U1_M11,ZSPAN_M11,X0_M11,X2_M11,X1_M11
2021-12-15 08:00:00,,0811.8,4.99,0.00,26.3,25.4,00.0,35.4,28.0,08.9,0000.0,0018.56,0005.38,0003.82
2021-12-15 08:01:00,,0811.7,5.01,0.00,26.3,25.4,00.0,35.3,28.0,08.9,0000.0,0017.94,0005.37,0003.80
2021-12-15 08:02:00,,0811.7,5.00,0.00,26.3,25.4,00.0,35.3,28.0,08.9,0000.0,0016.92,0005.40,0003.79
2021-12-15 08:03:00,,0811.7,5.01,0.00,26.2,25.4,00.0,35.3,27.9,09.0,0000.0,0015.84,0005.42,0003.78
2021-12-15 08:04:00,,0811.6,5.01,0.00,26.2,25.3,00.0,35.3,27.9,09.0,0000.0,0015.80,0005.43,0003.77
2021-12-15 08:05:00,,0811.6,5.01,0.00,26.2,25.3,00.0,35.3,27.9,09.0,0000.0,0016.60,0005.42,0003.74
2021-12-15 08:06:00,,0811.5,4.99,0.00,26.2,25.3,00.0,35.3,27.9,09.0,0000.0,0017.11,0005.40,0003.69
2021-12-15 08:07:00,,0811.5,5.01,0.00,26.1,25.3,00.0,35.3,27.8,09.1,0000.0,0016.70,0005.31,0003.65
2021-12-15 08:08:00,,0811.5,5.00,0.00,26.1,25.3,00.0,35.2,27.8,09.1,0000.0,0016.75,0005.19,0003.57
2021-12-15 08:09:00,,0811.5,5.00,0.00,26.1,25.2,00.0,35.2,27.8,09.1,0000.0,0017.24,0005.14,0003.51
2021-12-15 08:10:00,,0811.6,4.99,0.00,26.1,25.2,00.0,35.2,27.8,09.1,0000.0,0016.77,0005.03,0003.47
2021-12-15 08:11:00,,0811.5,5.00,0.00,26.1,25.2,00.0,35.2,27.8,09.1,0000.0,0016.76,0005.01,0003.47
2021-12-15 08:12:00,,0811.5,5.00,0.00,26.1,25.2,00.0,35.2,27.8,09.1,0000.0,0017.77,0005.05,0003.46
2021-12-15 08:13:00,,0811.5,5.00,0.00,26.0,25.2,00.0,35.2,27.7,09.1,0000.0,0018.38,0005.02,0003.45
2021-12-15 08:14:00,,0811.4,5.00,0.00,26.0,25.2,00.0,35.1,27.7,09.1,0000.0,0019.03,0005.04,0003.46
2021-12-15 08:15:00,,0811.4,5.01,0.00,26.0,25.2,00.0,35.1,27.7,09.2,0000.0,0019.99,0005.04,0003.45
2021-12-15 08:16:00,,0811.3,4.99,0.00,26.0,25.1,00.0,35.1,27.7,09.2,0000.0,0019.68,0005.00,0003.46
2021-12-15 08:17:00,,0811.3,5.02,0.00,26.0,25.1,00.0,35.1,27.7,09.2,0003.3,0018.94,0005.07,0003.51
2021-12-15 08:18:00,,0811.2,5.00,0.00,26.0,25.1,00.0,35.1,27.7,09.2,0002.7,0018.88,0005.12,0003.54
2021-12-15 08:19:00,,0811.2,4.99,0.00,26.0,25.1,00.0,35.1,27.7,09.2,0001.8,0020.10,0005.21,0003.60
2021-12-15 08:20:00,,0811.3,5.02,0.00,25.9,25.1,00.0,35.0,27.6,09.3,0003.9,0018.48,0005.28,0003.65
2021-12-15 08:21:00,,0811.3,4.99,0.00,25.9,25.0,00.0,35.0,27.6,09.3,0004.5,0018.51,0005.29,0003.69
2021-12-15 08:22:00,,0811.2,5.01,0.00,25.9,25.0,00.0,35.0,27.6,09.2,0005.6,0019.36,0005.32,0003.70
2021-12-15 08:23:00,,0811.2,4.99,0.00,25.9,25.0,00.0,35.0,27.6,09.1,0005.9,0018.91,0005.21,0003.67
2021-12-15 08:24:00,,0811.2,5.00,0.00,25.9,25.1,00.0,35.0,27.6,09.1,0003.9,0017.79,0005.15,0003.66
2021-12-15 08:25:00,,0811.2,5.01,0.00,25.9,25.1,00.0,35.0,27.6,09.1,0003.8,0017.45,0005.11,0003.63
2021-12-15 08:26:00,,0811.1,4.99,0.00,25.9,25.1,00.0,35.0,27.6,09.1,0000.0,0017.02,0005.07,0003.60
2021-12-15 08:27:00,,0811.1,5.00,0.00,25.9,25.1,00.0,35.0,27.6,09.0,0000.0,0016.85,0005.05,0003.57
2021-12-15 08:28:00,,0811.0,5.00,0.00,25.9,25.1,00.0,35.0,27.6,09.0,0000.0,0016.57,0004.97,0003.51
2021-12-15 08:29:00,,0811.0,5.00,0.00,25.9,25.1,00.0,35.0,27.6,09.0,0000.0,0016.96,0004.88,0003.46
2021-12-15 08:30:00,,0811.1,5.01,0.00,25.9,25.1,00.0,34.9,27.7,09.1,0000.0,0016.34,0004.87,0003.40
2021-12-15 08:31:00,,0811.1,4.99,0.00,25.9,25.1,00.0,35.0,27.7,09.1,0000.0,0015.80,0004.77,0003.33
2021-12-15 08:32:00,,0811.0,5.00,0.00,25.9,25.1,00.0,35.0,27.6,09.1,0000.0,0016.71,0004.69,0003.28
2021-12-15 08:33:00,,0811.0,4.99,0.00,25.9,25.1,00.0,34.9,27.6,09.2,0000.0,0016.91,0004.60,0003.23
2021-12-15 08:34:00,,0811.0,5.02,0.00,25.9,25.1,00.0,34.9,27.6,09.3,0000.0,0016.63,0004.60,0003.20
2021-12-15 08:35:00,,0811.0,4.98,0.00,25.9,25.1,00.0,34.9,27.6,09.3,0000.0,0017.42,0004.57,0003.17
2021-12-15 08:36:00,,0811.0,5.00,0.00,25.9,25.1,00.0,34.9,27.6,09.1,0000.0,0017.88,0004.54,0003.14
2021-12-15 08:37:00,,0811.0,5.01,0.00,25.9,25.1,00.0,34.9,27.6,09.1,0000.0,0017.03,0004.51,0003.12
2021-12-15 08:38:00,,0811.0,5.02,0.00,25.9,25.1,00.0,34.9,27.6,09.3,0000.0,0016.79,0004.43,0003.09
2021-12-15 08:39:00,,0810.9,4.98,0.00,25.9,25.0,00.0,34.9,27.6,09.2,0000.0,0016.70,0004.39,0003.07
2021-12-15 08:40:00,,0810.9,4.99,0.00,25.9,25.0,00.0,34.9,27.6,09.3,0000.0,0016.26,0004.32,0002.99
2021-12-15 08:41:00,,0810.9,5.00,0.00,25.9,25.0,00.0,34.9,27.6,09.2,0000.0,0015.89,0004.25,0002.95
2021-12-15 08:42:00,,0810.8,5.01,0.00,25.9,25.0,00.0,34.9,27.6,09.3,0000.0,0015.96,0004.20,0002.91
2021-12-15 08:43:00,,0810.8,4.99,0.00,25.8,25.0,00.0,34.9,27.6,09.2,0000.0,0014.87,0004.18,0002.88
2021-12-15 08:44:00,,0810.8,5.01,0.00,25.8,25.0,00.0,34.9,27.5,09.1,0000.0,0014.05,0004.16,0002.86
2021-12-15 08:45:00,,0810.8,4.98,0.00,25.8,25.0,00.0,34.9,27.5,09.0,0000.0,0014.39,0004.13,0002.84
2021-12-15 08:46:00,,0810.7,5.01,0.00,25.8,25.0,00.0,34.9,27.5,09.0,0000.0,0014.84,0004.10,0002.82
2021-12-15 08:47:00,,0810.7,5.00,0.00,25.8,25.0,00.0,34.9,27.5,09.1,0000.0,0014.34,0004.00,0002.76
2021-12-15 08:48:00,,0810.7,4.99,0.00,25.8,25.0,00.0,34.9,27.5,09.0,0000.0,0014.82,0003.97,0002.72
2021-12-15 08:49:00,,0810.8,4.98,0.00,25.8,25.0,00.0,34.9,27.5,09.0,0000.0,0014.33,0003.96,0002.68
2021-12-15 08:50:00,,0810.8,5.01,0.00,25.8,25.0,00.0,34.9,27.5,09.1,0000.0,0015.06,0003.93,0002.60
2021-12-15 08:51:00,,0810.9,5.00,0.00,25.8,25.0,00.0,34.8,27.5,09.0,0000.0,0015.31,0003.93,0002.55
2021-12-15 08:52:00,,0810.8,5.00,0.00,25.8,25.0,00.0,34.8,27.6,08.9,0000.0,0015.23,0003.82,0002.50
2021-12-15 08:53:00,,0810.8,4.99,0.00,25.8,25.0,00.0,34.8,27.6,08.8,0000.0,0014.94,0003.74,0002.44
2021-12-15 08:54:00,,0810.8,4.99,0.00,25.8,25.0,00.0,34.8,27.6,08.8,0000.0,0014.33,0003.66,0002.35
2021-12-15 08:55:00,,0810.8,5.01,0.00,25.8,25.0,00.0,34.8,27.6,08.8,0000.0,0013.46,0003.56,0002.27
2021-12-15 08:56:00,,0810.8,5.01,0.00,25.8,25.0,00.0,34.8,27.6,08.8,0000.0,0012.88,0003.47,0002.20
2021-12-15 08:57:00,,0810.7,4.99,0.00,25.8,25.0,00.0,34.8,27.6,08.8,0000.0,0011.48,0003.41,0002.15
2021-12-15 08:58:00,,0810.7,5.01,0.00,25.8,25.0,00.0,34.8,27.6,08.8,0000.0,0011.37,0003.44,0002.13
2021-12-15 08:59:00,,0810.7,4.99,0.00,25.8,25.0,00.0,34.8,27.6,08.8,0000.0,0010.92,0003.40,0002.09
